CAPE
0 0 0 0 0 0 5 0 5 6 73 173 18 6 126 175 633 406 184 29 0 0 0 0 0 0 0 0 0 0 0 0 0 0 0 0 0 0 0 0 0 0 0 0
0 0 0 0 0 1 1 17 55 27 11 10 5 28 0 0 0 1 209 30 0 0 0 39 0 0 0 0 0 0 0 0 0 0 0 0 0 0 0 0 0 0 0 0
0 0 0 0 0 0 0 0 7 18 30 15 4 62 0 0 12 188 253 98 41 0 1 84 2 0 0 0 0 0 0 0 0 0 0 0 0 0 0 0 0 0 0 0
0 0 0 0 0 0 0 0 32 36 0 3 0 12 13 21 320 264 133 185 140 39 359 307 4 0 0 0 0 0 0 0 0 0 0 0 0 0 0 0 0 0 0 0
0 0 0 0 0 0 0 0 6 14 0 0 11 46 0 11 145 87 119 133 248 20 504 260 0 0 0 0 0 0 0 0 0 0 0 2 0 0 0 0 0 0 0 0
0 0 0 0 0 0 0 0 0 0 0 0 0 3 0 1 31 136 0 1 92 184 476 149 15 0 0 0 0 0 0 0 0 0 5 20 0 0 0 0 0 0 0 0
0 0 0 0 0 0 0 0 0 0 5 19 0 0 0 0 89 27 5 6 56 85 558 175 34 1 0 0 0 17 13 55 61 74 61 63 15 0 0 0 0 0 0 0
0 0 0 0 0 0 0 0 0 2 2 0 2 39 11 4 113 201 46 8 3 0 144 349 147 41 41 16 10 46 89 206 265 162 66 176 115 1 0 0 8 0 0 0
0 0 0 2 0 0 0 0 0 0 0 2 1 30 3 0 6 106 238 206 56 4 2 480 475 280 216 213 133 43 281 338 368 436 232 212 263 71 5 34 18 0 0 0
0 0 0 2 0 0 0 0 0 0 2 47 11 59 0 8 68 199 177 238 130 1 1 252 452 460 408 285 197 55 333 468 549 506 395 388 418 155 7 0 0 0 0 0
0 0 0 0 1 2 0 0 0 0 0 3 25 11 0 97 160 8 14 23 0 0 51 214 423 520 532 331 132 93 262 420 638 231 0 2 158 358 184 31 0 0 0 52
0 0 0 0 0 0 0 25 1 0 16 0 1 0 37 127 135 35 1 11 5 0 129 118 155 263 556 442 273 299 175 462 495 367 0 0 12 85 231 165 58 58 95 90
21 3 140 88 0 0 11 0 0 0 0 0 0 78 60 40 67 8 0 0 0 0 0 1 14 81 171 358 497 424 272 433 439 23 0 14 4 0 0 60 55 22 0 2
92 72 161 34 26 4 47 4 0 0 0 0 36 223 333 164 74 94 35 0 0 0 0 0 0 0 103 54 322 433 234 264 290 231 168 57 163 26 0 4 0 6 26 43
447 264 64 17 19 91 21 2 0 0 0 94 187 148 94 81 107 164 270 57 90 242 148 100 15 0 11 3 141 386 271 387 234 242 167 276 254 0 0 44 6 111 45 0
22 43 91 37 69 66 17 23 25 25 4 273 246 453 185 133 283 319 377 412 304 306 162 101 148 24 7 0 178 21 40 66 8 114 180 218 202 210 13 0 111 61 0 0
42 128 68 64 82 43 19 57 19 212 883 538 586 494 174 170 153 168 220 248 305 314 235 202 60 188 101 121 141 131 5 41 21 0 0 17 55 8 5 20 1 0 0 0
144 73 5 5 59 61 5 52 84 991 1158 811 590 376 198 162 127 155 178 307 205 184 146 214 354 340 87 2 24 0 0 0 5 0 9 4 0 2 34 0 0 0 0 0
0 2 107 0 7 49 108 147 374 1239 1146 954 413 172 194 154 83 149 280 214 170 187 246 410 368 376 0 0 0 0 0 0 0 0 0 24 3 0 0 0 0 0 0 0
0 0 40 0 0 76 549 163 120 341 273 917 274 174 213 112 118 108 128 19 223 4 375 321 83 20 0 0 0 0 0 0 0 0 6 5 0 0 0 0 0 0 0 0
0 56 98 0 0 324 520 466 135 281 286 395 220 152 147 132 118 42 0 31 104 121 242 356 61 82 20 0 0 0 0 0 0 11 0 0 0 0 0 0 0 0 0 0
0 5 141 73 319 693 733 73 678 632 488 324 284 206 216 166 49 6 80 194 230 517 394 341 166 47 0 0 0 0 0 0 0 0 0 0 0 0 0 0 0 0 0 0
465 30 290 294 234 48 182 65 836 323 287 150 352 212 153 147 79 172 350 331 401 557 441 227 29 0 0 0 0 1 0 0 0 0 0 0 0 0 0 0 0 0 0 0
0 0 328 208 163 167 143 2 390 274 291 333 211 108 135 218 137 403 451 278 147 366 152 3 0 0 0 0 0 0 0 0 0 0 0 0 0 0 0 0 0 0 0 0
7 112 20 10 34 91 708 577 509 449 331 296 186 310 182 282 313 380 455 153 98 235 282 212 128 0 0 0 0 0 0 0 0 0 0 0 0 0 0 0 0 0 0 0
50 248 152 227 54 7 753 482 447 344 369 252 298 500 392 269 286 87 211 96 82 179 144 16 0 0 0 0 0 0 0 0 0 0 0 0 0 0 0 0 0 0 0 0
CIN
0 0 0 0 0 0 -77 0 -112 -291 -358 -270 -322 -365 -315 -302 -239 -223 -293 -104 0 0 -2 0 0 0 0 0 0 0 0 0 0 0 0 0 0 0 0 0 0 0 0 0
0 0 0 0 0 -32 -24 -108 -164 -313 -377 -317 -297 -300 -241 0 0 -78 -273 -506 0 0 -12 -412 0 0 0 0 0 0 0 0 0 0 0 0 0 0 0 0 0 0 0 0
0 0 0 0 0 0 0 -6 -149 -147 -350 -364 -221 -188 -1 0 -172 -333 -343 -322 -350 0 -25 -483 -101 0 0 0 0 0 0 0 0 0 0 0 0 0 0 0 0 0 0 0
0 0 0 0 0 0 0 -2 -147 -171 -4 -104 0 -138 -295 -350 -373 -149 -154 -233 -298 -302 -301 -362 -186 0 0 0 0 0 0 0 0 0 0 0 0 0 0 0 0 0 0 0
0 0 0 0 0 0 0 -15 -168 -253 0 0 -108 -184 0 -292 -301 -278 -303 -246 -275 -282 -311 -439 0 0 0 0 0 0 0 0 0 0 0 -294 0 0 0 0 0 0 0 0
0 0 0 0 0 0 0 0 0 0 0 -15 0 -99 0 -207 -193 -164 0 -269 -265 -294 -404 -596 -700 -48 0 0 0 0 0 0 0 0 -207 -244 -43 0 0 0 0 0 0 0
0 0 0 0 0 0 0 0 0 0 -31 -89 0 0 0 0 -220 -363 -246 -427 -288 -323 -335 -501 -566 -38 0 0 0 -430 -254 -340 -309 -244 -242 -193 -202 0 0 0 0 0 0 0
0 0 0 0 0 0 0 0 0 -24 -46 0 -76 -157 -148 -306 -373 -381 -508 -595 -507 -63 -335 -386 -449 -526 -521 -438 -409 -399 -355 -267 -214 -219 -218 -181 -167 -150 0 0 -153 0 0 0
0 0 0 -67 0 0 -5 -74 0 0 0 -14 -123 -200 -196 0 -430 -403 -353 -269 -304 -46 -36 -292 -368 -417 -467 -433 -429 -420 -347 -280 -204 -184 -197 -165 -139 -165 -54 -145 -187 0 0 0
0 0 0 -44 0 0 0 0 0 0 -73 -89 -136 -118 0 -87 -279 -358 -361 -278 -266 -29 -17 -297 -341 -394 -423 -435 -414 -440 -359 -316 -227 -211 -188 -165 -157 -185 -46 0 0 0 0 0
0 0 0 0 -78 -105 -9 0 0 0 0 -21 -90 -85 0 -233 -269 -118 -75 -190 0 0 -268 -286 -315 -367 -378 -398 -389 -366 -318 -300 -235 -314 0 -69 -210 -155 -170 -144 0 0 0 -105
0 0 0 0 0 0 0 -191 -9 0 -76 0 -1 0 -217 -299 -317 -341 -14 -94 -139 0 -261 -294 -300 -317 -346 -357 -362 -300 -319 -262 -268 -294 0 0 -47 -226 -186 -173 -168 -164 -121 -109
-70 -5 -50 -68 0 0 -120 0 0 0 0 -22 0 -76 -304 -390 -316 -212 0 0 0 0 0 -98 -293 -242 -275 -288 -303 -297 -321 -261 -254 -404 0 -439 -114 -9 -93 -189 -140 -123 0 -84
-189 -184 -70 -66 -99 -50 -100 -120 0 0 0 0 -137 -88 -111 -219 -245 -220 -279 0 0 0 0 0 0 0 -239 -250 -272 -272 -339 -337 -320 -326 -264 -357 -267 -290 0 -68 -11 -107 -116 -127
-137 -50 -85 -105 -107 -112 -166 -28 0 0 0 -144 -140 -135 -158 -189 -189 -215 -192 -264 -208 -128 -148 -154 -53 0 -225 -64 -221 -237 -199 -188 -247 -208 -244 -226 -237 0 0 -214 -253 -141 -177 0
-311 -55 -104 -75 -156 -109 -98 -228 -210 -201 -22 -126 -165 -120 -220 -236 -218 -211 -236 -199 -203 -176 -173 -214 -201 -294 -226 0 -252 -196 -9 -173 -151 -51 -112 -202 -193 -190 -207 -3 -180 -217 0 0
-206 -90 -88 -37 -149 -81 -62 -336 -277 -148 -103 -127 -117 -164 -264 -220 -224 -243 -228 -242 -196 -156 -104 -117 -339 -343 -445 -436 -318 -293 -220 -196 -233 0 0 -146 -120 -117 -103 -217 -16 0 0 0
-199 -160 -68 -24 -107 -28 -10 -388 -338 -119 -126 -157 -192 -222 -235 -264 -285 -251 -257 -174 -172 -168 -203 -197 -237 -254 -416 -305 -438 0 0 0 -94 -17 -115 -219 0 -9 -202 0 0 0 0 0
-10 -39 -76 0 -123 -190 -159 -290 -184 -104 -159 -239 -253 -285 -263 -278 -308 -244 -240 -241 -262 -227 -240 -207 -276 -263 0 -53 0 0 0 0 0 0 -14 -144 -73 0 0 0 0 0 0 0
0 0 -44 0 0 -56 -85 -413 -578 -366 -153 -233 -300 -263 -233 -338 -269 -284 -302 -334 -175 -372 -186 -248 -338 -385 0 0 0 0 0 0 0 0 -234 -170 0 0 0 0 0 0 0 0
0 -219 -41 0 0 -105 -185 -277 -453 -161 -121 -260 -241 -213 -212 -222 -258 -290 -8 -316 -273 -266 -198 -257 -339 -270 -340 0 0 0 0 0 0 -169 0 0 0 0 0 0 0 0 0 0
0 -44 -81 -135 -88 -36 -170 -269 -113 -169 -285 -210 -226 -198 -197 -241 -258 -325 -310 -231 -216 -145 -194 -202 -216 -299 0 0 0 0 0 0 0 0 0 0 0 0 0 0 0 0 0 0
-47 -175 -62 -115 -103 -375 -463 -351 -256 -338 -249 -265 -181 -235 -304 -251 -255 -226 -176 -165 -125 -120 -121 -164 -305 -3 0 0 0 -180 0 0 0 0 0 0 0 0 0 0 0 0 0 0
0 0 -144 -152 -179 -314 -337 -69 -344 -308 -225 -244 -286 -286 -314 -215 -220 -148 -133 -150 -159 -112 -151 -306 0 0 0 0 0 0 0 0 0 0 0 0 0 0 0 0 0 0 0 0
-349 -379 -262 -161 -199 -287 -181 -153 -150 -166 -251 -238 -235 -208 -266 -183 -143 -122 -98 -181 -192 -108 -106 -119 -138 0 0 0 0 0 0 0 0 0 0 0 0 0 0 0 0 0 0 0
-372 -207 -160 -140 -346 -247 -123 -156 -158 -180 -198 -200 -198 -220 -196 -178 -148 -203 -142 -199 -164 -105 -117 -178 0 0 0 0 0 0 0 0 0 0 0 0 0 0 0 0 0 0 0 0
Wind_Speed
4 7 7 13 7 7 5 0 7 2 10 8 9 4 4 4 6 4 14 4 8 13 15 7 7 9 8 7 8 8 8 5 4 2 3 2 2 2 2 3 4 6 5 6
7 3 7 12 13 6 6 9 4 3 2 6 4 5 4 4 2 3 11 7 10 11 15 7 9 8 7 7 7 7 6 6 3 1 2 3 2 3 3 2 5 6 6 6
2 9 9 8 11 5 1 7 7 7 4 5 7 3 3 2 7 5 6 7 10 11 13 7 6 6 7 7 7 8 7 5 4 4 0 2 1 1 1 1 2 4 6 4
4 6 7 13 6 1 1 4 9 11 4 4 1 2 7 5 8 5 6 7 7 5 4 5 8 7 8 6 6 7 6 5 4 5 2 3 2 1 3 2 3 4 5 5
7 7 11 11 6 2 8 4 11 5 6 7 4 7 8 7 6 5 14 10 9 3 3 8 10 11 11 10 8 7 7 6 5 6 5 3 3 3 2 2 1 2 4 5
5 4 4 6 10 6 5 8 8 6 4 5 2 8 6 5 1 6 12 14 10 7 6 6 7 11 10 9 8 7 8 7 7 7 7 6 5 4 3 3 3 2 2 3
8 6 6 1 8 8 7 7 4 6 6 2 3 5 5 4 5 13 14 13 10 7 7 9 10 8 10 10 9 7 8 8 8 7 6 7 7 6 5 3 2 3 1 2
2 11 5 7 4 5 5 8 7 3 2 2 6 2 2 8 9 14 19 12 6 7 8 9 11 11 12 13 12 10 9 8 7 7 9 8 7 4 4 4 3 3 3 3
4 7 2 5 1 2 3 5 2 7 4 5 3 1 5 7 9 12 11 8 9 8 11 8 9 12 14 13 13 14 12 8 8 10 6 6 6 6 5 5 5 4 3 4
5 2 4 4 5 4 5 2 4 4 4 2 4 4 4 8 12 10 13 12 15 6 9 8 11 11 12 13 13 13 13 12 10 10 5 5 7 5 6 4 7 5 5 4
6 4 7 2 1 3 4 2 7 4 5 7 4 6 8 9 10 7 11 9 6 7 9 9 10 10 11 10 12 12 11 11 10 9 6 7 6 7 6 5 6 6 5 6
1 5 1 5 4 5 3 3 6 6 2 2 4 6 6 10 7 6 9 8 9 9 12 10 10 9 9 11 11 10 8 11 13 11 7 8 5 5 5 6 7 7 7 5
3 3 4 12 8 6 3 2 2 4 4 3 6 6 2 4 9 8 9 15 9 7 8 6 5 7 8 10 10 10 7 11 10 8 7 7 8 6 6 6 6 6 7 6
7 4 7 6 8 4 3 9 5 6 5 2 2 2 5 4 8 10 11 10 8 3 5 6 7 9 8 8 7 10 11 11 9 10 10 10 9 7 7 8 7 7 5 5
5 3 3 4 6 3 2 9 13 14 2 8 4 2 5 5 6 7 5 8 6 3 5 7 7 7 9 7 7 11 8 4 10 8 5 9 9 10 9 9 7 5 6 5
5 1 3 6 4 3 2 6 5 4 5 7 8 1 3 2 1 8 7 6 6 5 5 7 8 9 9 3 12 19 19 10 11 11 8 9 10 8 6 4 5 6 6 6
4 2 3 3 3 1 4 2 4 5 7 6 4 3 0 4 6 5 6 6 5 5 6 8 6 4 10 10 8 11 6 6 8 9 7 9 3 5 6 7 7 6 6 5
5 1 3 3 3 1 5 7 9 11 5 6 5 2 1 2 3 3 4 2 6 6 7 3 4 1 6 8 8 8 6 6 6 7 5 8 8 6 2 4 5 3 3 4
8 4 2 3 1 5 4 2 3 3 3 3 6 1 4 4 4 5 5 4 4 2 1 5 5 1 5 7 6 9 6 5 7 6 6 5 5 5 4 4 4 4 3 3
4 2 5 3 3 6 6 5 5 4 5 2 6 3 2 3 4 5 7 5 5 6 3 5 1 1 7 5 5 8 6 6 5 3 2 2 3 3 4 4 3 2 2 3
1 1 6 3 3 6 5 8 3 7 10 6 6 4 2 1 5 6 6 8 6 5 5 4 4 3 4 5 4 5 5 5 6 1 2 5 4 4 6 4 3 2 3 2
7 6 4 4 3 4 6 6 8 8 5 6 5 5 3 2 3 5 7 7 7 7 5 3 4 4 4 4 6 5 5 5 1 2 5 6 3 3 3 5 3 3 2 3
1 7 5 5 7 4 2 2 1 5 6 6 6 4 6 5 3 4 4 6 5 5 4 3 6 5 3 5 6 6 3 2 4 4 3 4 3 3 3 4 4 2 3 4
2 1 3 4 6 6 4 1 5 5 5 4 6 6 6 7 5 5 3 2 2 1 3 3 5 5 5 5 3 2 3 3 2 3 4 4 3 4 4 3 4 4 5 5
4 3 3 1 7 4 5 3 6 2 7 7 6 4 8 8 4 4 2 2 3 4 2 3 5 5 6 4 4 4 4 4 4 4 4 3 3 4 5 5 5 5 7 7
4 7 5 8 10 6 8 7 7 8 8 8 7 6 5 6 6 4 3 2 4 5 3 3 4 4 5 5 5 6 5 4 3 3 3 4 3 4 4 4 6 9 14 15
Wind_Direction
350 9 324 302 245 189 208 73 132 96 127 72 134 111 304 98 241 293 279 204 305 306 302 166 120 134 137 138 131 128 121 127 121 108 120 62 255 282 276 244 214 217 178 167
9 300 275 339 356 174 107 119 119 92 64 79 211 161 253 97 36 291 277 326 300 287 310 115 124 141 147 104 99 106 119 143 164 162 170 169 183 229 225 255 183 197 178 178
170 268 318 6 353 37 43 145 188 144 134 71 156 69 64 17 184 235 235 255 277 264 263 121 132 126 106 99 124 142 157 156 186 171 315 354 339 319 336 269 159 206 202 184
273 295 342 337 332 295 336 195 110 130 121 114 143 337 1 309 325 26 298 303 294 318 242 125 100 100 111 129 148 153 154 174 211 187 172 195 191 217 242 220 207 193 222 206
262 314 323 323 263 10 239 45 128 116 94 106 333 69 290 322 347 282 300 303 334 271 151 119 138 144 153 153 170 161 169 193 213 199 198 181 199 225 233 133 151 269 265 230
240 242 228 233 289 247 191 83 43 56 75 57 216 126 280 255 258 310 275 293 299 228 130 129 140 141 156 164 161 168 178 200 211 202 211 202 207 189 163 187 215 232 268 226
332 283 287 303 347 309 94 58 10 13 20 191 329 85 214 219 184 222 254 278 302 245 159 157 150 163 163 172 179 183 189 208 210 206 205 212 217 211 205 197 209 173 273 198
258 334 27 318 97 261 90 136 147 183 177 184 355 143 210 216 218 244 250 254 276 301 246 175 175 181 174 183 183 191 197 209 201 209 215 211 211 216 213 193 216 216 202 210
177 264 351 51 5 50 344 44 145 101 60 76 272 348 327 279 252 263 269 294 273 255 237 179 186 192 180 184 190 193 201 196 190 217 220 224 216 217 224 209 202 214 206 205
250 321 314 316 56 0 107 164 36 17 105 141 308 291 222 255 264 258 263 256 265 234 210 193 197 194 192 186 192 196 198 191 198 206 189 217 229 215 221 231 216 221 225 233
167 117 294 19 304 200 330 53 53 108 133 144 167 255 226 235 223 249 233 231 268 230 196 199 205 200 200 193 192 197 198 185 188 195 165 203 226 205 212 217 238 236 255 239
16 131 56 264 314 229 148 181 136 117 240 200 147 260 233 245 254 239 269 275 285 223 204 208 211 200 203 205 197 194 183 189 187 199 171 211 201 207 207 222 226 219 231 238
184 13 28 342 352 5 12 234 178 114 82 189 119 257 235 289 288 286 278 282 305 246 236 254 271 238 216 218 205 190 176 200 192 176 175 205 222 227 239 236 246 212 214 228
82 107 141 183 231 212 353 30 73 135 91 239 15 21 339 284 270 296 286 260 262 355 318 297 272 257 253 225 194 191 185 184 184 169 195 202 208 213 220 227 221 218 208 165
88 110 130 221 40 43 23 93 77 62 270 112 263 353 293 264 248 234 59 80 107 315 10 353 324 286 241 258 229 214 150 271 178 176 182 208 207 213 218 227 227 155 149 150
359 349 48 354 65 15 104 63 90 124 176 113 130 176 271 343 86 39 40 46 17 349 335 308 317 340 284 330 43 53 27 46 21 6 280 230 213 216 220 223 149 143 134 134
54 65 67 277 8 35 340 15 17 330 34 124 153 190 51 38 65 44 32 43 20 347 333 342 6 46 80 92 99 111 164 70 77 92 338 298 271 212 186 160 146 151 158 151
82 75 104 236 28 260 235 207 190 125 104 74 79 82 56 120 201 50 28 85 341 315 346 19 170 141 62 104 102 107 101 122 121 81 46 13 359 346 71 125 117 126 164 173
144 133 63 116 161 288 280 202 245 149 197 94 129 67 38 18 45 341 355 342 293 334 241 189 196 108 91 88 99 91 72 97 104 136 125 259 3 322 125 106 157 202 187 192
82 86 133 131 155 210 241 140 153 86 329 113 132 89 40 57 44 271 296 306 330 27 173 175 193 34 105 82 83 93 96 90 94 189 226 356 310 226 128 174 189 211 196 228
153 208 169 142 172 270 253 123 102 96 232 193 156 152 73 81 196 249 309 4 1 30 70 62 87 115 116 101 140 125 119 147 201 269 319 298 217 153 207 207 211 207 235 264
172 136 193 90 107 253 190 126 169 200 170 166 174 171 161 190 341 351 20 29 35 66 101 110 95 78 110 115 120 136 183 228 60 313 258 245 248 264 186 197 223 238 257 287
138 177 175 147 214 284 306 240 20 136 151 181 149 176 137 96 50 65 62 54 83 115 131 105 116 119 133 161 173 182 229 184 246 239 313 333 293 256 219 203 237 273 263 252
302 58 101 89 336 346 225 275 301 174 168 126 146 162 123 115 112 102 96 31 49 148 150 154 137 144 170 208 195 237 174 228 299 295 284 289 266 287 295 272 245 237 245 247
220 19 110 308 275 343 44 177 199 186 127 136 178 136 136 116 97 122 145 17 45 86 103 150 167 182 204 212 230 231 221 204 237 261 283 289 283 275 287 268 244 237 241 210
196 173 146 218 214 156 210 219 216 163 170 176 133 117 127 128 145 147 112 122 112 103 143 157 187 192 218 223 232 225 226 213 227 277 292 283 286 288 294 288 297 246 242 258